Showing default

DODGE 1, 2867

Orbit data source: Space-Track

DODGE 1, 2867 is a payload satellite owned by USN NAVAIR (US) in GEO that was launched on Sat, 01 Jul 1967 UTC via a TITAN IIIC launch vehicle from the Air Force Eastern Test Range (AFETR). Payload-class satellites include a variety of spacecraft equipped with specific instruments for various scientific and technological missions. These include communications satellites like Starlink; space stations such as the ISS; scientific satellites like the Hubble; Earth observation satellites from companies like Planet Labs, Umbra, and HawkEye 360; GPS; miniature CubeSats for education and research; and military/defense satellites.

Not visible in the next 10 days
Identifier
2867, 1967-066F
Orbit
GEO
Country
Flag of USUS
Related business
Manufacturer
APL
Mission
Spacecraft
Bus & Motor
DODGE, Unknown motor
Mass
195 kg wet, 195 kg dry
Launch date (UTC)
1967-07-01 (59 years ago)
Launch vehicle
TITAN IIIC
Launch site
Air Force Eastern Test Range (AFETR)
Object type
Payload
Rocket body
Debris
Shape & HBR
STEP CYL + 2 ANT, 1.1 m
Radar Cross Section
Large (>1 m²)

Expand to show TLE details & history
Last TLE update: 7 hours ago

TLE from 7 hours ago
0 DODGE 1
1 02867U 67066F   26254.89231476 -.00000083  00000-0  00000-0 0  9999
2 02867   2.6902  95.0818 0052718 196.4712 149.6477  1.09167569134323
Epoch: 2026-09-11T21:24Z
TLE epoch observation values (Epoch: 2026-09-11T21:24:55.995Z)
Latitude
-0.65735°
Longitude
129.37435°
Altitude
33,643.925 km
Speed
3.149 km/s
True Right ascension
05h 26m 04s
True Declination
0° 39' 24"
Sunlit
Object was in daylight at epoch
Visualization orbit readout
Latitude
Unknown
Longitude
Unknown
Altitude
Unknown
Speed
Unknown
Apparent Right ascension
Unknown
Apparent Declination
Unknown
Sunlit
N/A
Visualization observer readout
Local Sidereal Time
20:57:39
Azimuth
Unknown
Elevation
Unknown
Doppler factor
Unknown
Orbital elements
Apogee altitude
33,674.876 km
Perigee altitude
33,254.788 km
Semi-major axis
39,842.969 km
Eccentricity
0.00527
Inclination
2.6902°
RAAN
95.0818°
Arg. of periapsis
196.4712°
True anomaly
149.95124°
Mean anomaly
149.6477°
Eccentric anomaly
149.79964°
Mean motion
0.27291 °/min
Orbital period
1,319.13 mins
BSTAR
0
Loading maneuver chart data...
Computing Atmospheric mass density...
Loading historical data...
Loading historical data...
Loading historical data...
Loading historical data...
Loading historical data...
Loading historical data...
Loading historical data...

Documentation

Showing up to 5 results
|